{"data":{"norad_id":64048,"epoch":"2026-09-21T22:25:03.436320Z","epoch_age_seconds":71531,"freshness":"FRESH","line1":"1 64048U 25103A   26264.93406755  .00001182  00000+0  59410-4 0  9996","line2":"2 64048  97.4115 335.6721 0001581  91.5486 268.5930 15.19173116 74768","mean_motion":15.19173116,"eccentricity":0.0001581,"inclination_deg":97.4115,"raan_deg":335.6721,"arg_perigee_deg":91.5486,"mean_anomaly_deg":268.593,"bstar":5.941e-5,"rev_number":7476,"period_min":94.788407248249,"perigee_km":507.24959562695,"apogee_km":509.42709913179,"semimajor_km":6886.4753473794,"source":"CELESTRAK","updated_at":"2026-09-22T09:00:29.522310Z"}}